Change the Weather History Date:

Wednesday, November 14, 2012

  Actual Average Record
Temperature  
Mean Temperature 57 °F -  
Max Temperature 66 °F 63 °F 77 °F (2008)
Min Temperature 48 °F 43 °F 30 °F (1985)
Degree Days  
Heating Degree Days 8    
Growing Degree Days 7 (Base 50)    
Moisture  
Dew Point 43 °F    
Average Humidity 68    
Maximum Humidity 82    
Minimum Humidity 49    
Precipitation  
Precipitation 0.00 in - - ()
Sea Level Pressure  
Sea Level Pressure 30.09 in    
Wind  
Wind Speed 1 mph (South)    
Max Wind Speed 6 mph    
Max Gust Speed -    
Visibility 10 miles    
Events      
Averages and records for this station are not official NWS values.
T = Trace of Precipitation, MM = Missing Value Source: NWS Daily Summary

Daily Weather History Graph

Daily Weather History Graph

Search for Another Location

Airport or City:

Trip Planner

Search our weather history database for the weather conditions in past years. The results will help you decide how hot, cold, wet, or windy it might be!

Date:

Astronomy

Nov. 14, 2012 Rise Set
Actual Time 6:48 AM PST 4:58 PM PST
Civil Twilight 6:20 AM PST 5:26 PM PST
Nautical Twilight 5:48 AM PST 5:57 PM PST
Astronomical Twilight 5:17 AM PST 6:28 PM PST
Moon 7:42 AM PST (11/14) 5:53 PM PST (11/14)
Length of Visible Light 11h 06m
Length of Day
10h 10m
New Moon, 1% of the Moon is Illuminated
Nov 14
New Moon
Nov 20
First Quarter
Nov 28
Full
Dec 6
Last Quarter
Dec 13
New

Hourly Weather History & Observations

Time (PST) Temp. Dew Point Humidity Pressure Visibility Wind Dir Wind Speed Gust Speed Precip Events Conditions
12:15 AM 50.0 °F 41.0 °F 71% 30.13 in 10.0 mi Calm Calm - N/A   Clear
12:35 AM 50.0 °F 41.0 °F 71% 30.13 in 10.0 mi Calm Calm - N/A   Clear
12:55 AM 50.0 °F 41.0 °F 71% 30.12 in 10.0 mi Calm Calm - N/A   Clear
1:15 AM 50.0 °F 41.0 °F 71% 30.12 in 10.0 mi Calm Calm - N/A   Clear
1:35 AM 48.2 °F 41.0 °F 76% 30.13 in 10.0 mi Calm Calm - N/A   Clear
1:55 AM 48.2 °F 41.0 °F 76% 30.13 in 10.0 mi Calm Calm - N/A   Clear
2:15 AM 48.2 °F 41.0 °F 76% 30.13 in 10.0 mi Calm Calm - N/A   Clear
2:35 AM 48.2 °F 39.2 °F 71% 30.13 in 10.0 mi Calm Calm - N/A   Clear
3:15 AM 48.2 °F 39.2 °F 71% 30.12 in 10.0 mi Calm Calm - N/A   Clear
3:35 AM 48.2 °F 39.2 °F 71% 30.11 in 10.0 mi Calm Calm - N/A   Clear
3:55 AM 48.2 °F 39.2 °F 71% 30.11 in 10.0 mi Calm Calm - N/A   Clear
4:15 AM 48.2 °F 41.0 °F 76% 30.10 in 10.0 mi Calm Calm - N/A   Clear
4:35 AM 50.0 °F 39.2 °F 66% 30.10 in 10.0 mi SSW 5.8 mph - N/A   Clear
4:55 AM 51.8 °F 39.2 °F 62% 30.10 in 10.0 mi South 5.8 mph - N/A   Clear
5:15 AM 51.8 °F 39.2 °F 62% 30.11 in 10.0 mi South 4.6 mph - N/A   Clear
5:35 AM 51.8 °F 39.2 °F 62% 30.11 in 10.0 mi Calm Calm - N/A   Clear
5:55 AM 50.0 °F 39.2 °F 66% 30.12 in 10.0 mi Calm Calm - N/A   Clear
6:15 AM 50.0 °F 39.2 °F 66% 30.12 in 10.0 mi Calm Calm - N/A   Clear
6:35 AM 50.0 °F 39.2 °F 66% 30.12 in 10.0 mi SSW 3.5 mph - N/A   Clear
6:47 AM 48.2 °F 39.2 °F 71% 30.12 in 10.0 mi SSW 3.5 mph - N/A   Mostly Cloudy
6:55 AM 50.0 °F 39.2 °F 66% 30.12 in 10.0 mi SSW 4.6 mph - N/A   Clear
7:47 AM 50.0 °F 41.0 °F 71% 30.12 in 10.0 mi SE 3.5 mph - N/A   Mostly Cloudy
8:56 AM 53.6 °F 42.8 °F 67% 30.12 in 10.0 mi SE 4.6 mph - N/A   Mostly Cloudy
9:57 AM 55.4 °F 44.6 °F 67% 30.13 in 10.0 mi Calm Calm - N/A   Mostly Cloudy
10:52 AM 59.0 °F 41.0 °F 51% 30.12 in 10.0 mi Calm Calm - N/A   Mostly Cloudy
11:53 AM 64.4 °F 46.4 °F 52% 30.10 in 10.0 mi Calm Calm - N/A   Scattered Clouds
12:49 PM 64.4 °F 46.4 °F 52% 30.08 in 10.0 mi Calm Calm - N/A   Scattered Clouds
1:52 PM 66.2 °F 46.4 °F 49% 30.06 in 10.0 mi Calm Calm - N/A   Partly Cloudy
2:47 PM 66.2 °F - N/A% 30.04 in 10.0 mi Calm Calm - N/A   Partly Cloudy
4:47 PM 64.4 °F 48.2 °F 56% 30.03 in 10.0 mi Calm Calm - N/A   Scattered Clouds
5:47 PM 60.8 °F 50.0 °F 68% 30.03 in 10.0 mi Calm Calm - N/A   Scattered Clouds
6:47 PM 59.0 °F 46.4 °F 63% 30.04 in 10.0 mi Calm Calm - N/A   Partly Cloudy
7:47 PM 57.2 °F 46.4 °F 67% 30.03 in 10.0 mi Calm Calm - N/A   Partly Cloudy
8:47 PM 55.4 °F 46.4 °F 72% 30.03 in 10.0 mi Calm Calm - N/A   Mostly Cloudy
9:35 PM 55.4 °F 46.4 °F 72% 30.04 in 10.0 mi Calm Calm - N/A   Clear
9:55 PM 53.6 °F 44.6 °F 72% 30.03 in 10.0 mi Calm Calm - N/A   Clear
10:15 PM 53.6 °F 46.4 °F 77% 30.03 in 10.0 mi Calm Calm - N/A   Clear
10:35 PM 51.8 °F 46.4 °F 82% 30.03 in 10.0 mi Calm Calm - N/A   Clear
10:55 PM 51.8 °F 44.6 °F 76% 30.03 in 10.0 mi Calm Calm - N/A   Clear
11:15 PM 53.6 °F 44.6 °F 72% 30.03 in 10.0 mi Calm Calm - N/A   Clear
11:35 PM 53.6 °F 44.6 °F 72% 30.03 in 10.0 mi Calm Calm - N/A   Clear
11:55 PM 55.4 °F 44.6 °F 67% 30.03 in 10.0 mi SSW 4.6 mph - N/A   Clear